Edinburgh Airport, United Kingdom

8:15 AM BST on August 23, 2017 (GMT +0100)
Edinburgh Airport

Weather History for EGPH - September, 2013

Change the Weather History Date:

Wednesday, September 4, 2013

  Actual Average Record
Temperature  
Mean Temperature 60 °F -  
Max Temperature 69 °F 60 °F 77 °F (1999)
Min Temperature 50 °F 46 °F 37 °F (2000)
Degree Days  
Heating Degree Days 6    
Growing Degree Days 10 (Base 50)    
Moisture  
Dew Point 50 °F    
Average Humidity 71    
Maximum Humidity 100    
Minimum Humidity 49    
Precipitation  
Precipitation 0.00 in 0.09 in - ()
Sea Level Pressure  
Sea Level Pressure 30.04 in    
Wind  
Wind Speed 8 mph ()    
Max Wind Speed 21 mph    
Max Gust Speed -    
Visibility 6.2 miles    
Events      
Averages and records for this station are not official NWS values.
T = Trace of Precipitation, MM = Missing Value Source: Averaged Metar Reports

Daily Weather History Graph

Daily Weather History Graph

Search for Another Location

Airport or City:

Trip Planner

Search our weather history database for the weather conditions in past years. The results will help you decide how hot, cold, wet, or windy it might be!

Date:

Astronomy

Sep. 04, 2013 Rise Set
Actual Time 6:23 AM BST 7:59 PM BST
Civil Twilight 5:44 AM BST 8:38 PM BST
Nautical Twilight 4:56 AM BST 9:26 PM BST
Astronomical Twilight 4:00 AM BST 10:21 PM BST
Moon 5:20 AM BST (9/4) 7:07 PM BST (9/4)
Length of Visible Light 14h 53m
Length of Day
13h 35m
Waning Crescent, 1% of the Moon is Illuminated
Sep 4
Waning Crescent
Sep 5
New
Sep 12
First Quarter
Sep 19
Full
Sep 27
Last Quarter

Hourly Weather History & Observations

Time (BST) Temp. Dew Point Humidity Pressure Visibility Wind Dir Wind Speed Gust Speed Precip Events Conditions
12:20 AM 53.6 °F 51.8 °F 94% 30.18 in 6.2 mi WSW 5.8 mph - N/A   Scattered Clouds
12:50 AM 53.6 °F 51.8 °F 94% 30.18 in 6.2 mi SW 8.1 mph - N/A   Scattered Clouds
1:20 AM 53.6 °F 50.0 °F 88% 30.18 in 6.2 mi WSW 5.8 mph - N/A   Partly Cloudy
1:50 AM 53.6 °F 51.8 °F 94% 30.15 in 6.2 mi WSW 4.6 mph - N/A   Scattered Clouds
2:20 AM 53.6 °F 51.8 °F 94% 30.15 in 6.2 mi WSW 5.8 mph - N/A   Partly Cloudy
2:50 AM 55.4 °F 51.8 °F 88% 30.15 in 6.2 mi WSW 4.6 mph - N/A   Mostly Cloudy
3:20 AM 53.6 °F 50.0 °F 88% 30.15 in 6.2 mi WSW 4.6 mph - N/A   Mostly Cloudy
3:50 AM 53.6 °F 51.8 °F 94% 30.12 in 6.2 mi West 2.3 mph - N/A   Scattered Clouds
4:20 AM 53.6 °F 51.8 °F 94% 30.12 in 6.2 mi West 2.3 mph - N/A   Scattered Clouds
4:50 AM 53.6 °F 51.8 °F 94% 30.12 in 6.2 mi WSW 4.6 mph - N/A   Mostly Cloudy
5:20 AM 55.4 °F 51.8 °F 88% 30.12 in 6.2 mi SSW 6.9 mph - N/A   Partly Cloudy
5:50 AM 53.6 °F 51.8 °F 94% 30.09 in - West 2.3 mph - N/A   Clear
6:20 AM 50.0 °F 50.0 °F 100% 30.09 in - Calm Calm - N/A   Clear
6:50 AM 55.4 °F 53.6 °F 94% 30.09 in 6.2 mi SSW 10.4 mph - N/A   Unknown
7:20 AM 55.4 °F 51.8 °F 88% 30.09 in 6.2 mi SW 6.9 mph - N/A   Partly Cloudy
7:50 AM 59.0 °F 53.6 °F 82% 30.09 in 6.2 mi SSW 9.2 mph - N/A   Partly Cloudy
8:20 AM 59.0 °F 53.6 °F 82% 30.09 in 6.2 mi SW 12.7 mph - N/A   Partly Cloudy
8:50 AM 60.8 °F 53.6 °F 77% 30.09 in 6.2 mi SSW 11.5 mph - N/A   Partly Cloudy
9:20 AM 60.8 °F 53.6 °F 77% 30.09 in 6.2 mi SSW 16.1 mph - N/A   Partly Cloudy
9:50 AM 62.6 °F 51.8 °F 68% 30.06 in - SW 18.4 mph - N/A   Clear
10:20 AM 62.6 °F 50.0 °F 63% 30.06 in - SSW 15.0 mph - N/A   Clear
10:50 AM 64.4 °F 50.0 °F 59% 30.06 in - SW 11.5 mph - N/A   Clear
11:20 AM 64.4 °F 50.0 °F 59% 30.06 in - WSW 12.7 mph - N/A   Clear
11:50 AM 66.2 °F 48.2 °F 52% 30.04 in - SSW 15.0 mph - N/A   Clear
12:20 PM 64.4 °F 50.0 °F 59% 30.04 in - SW 15.0 mph - N/A   Clear
12:50 PM 64.4 °F 50.0 °F 59% 30.04 in - SW 16.1 mph - N/A   Clear
1:20 PM 64.4 °F 50.0 °F 59% 30.04 in - SW 13.8 mph - N/A   Clear
1:50 PM 66.2 °F 50.0 °F 56% 30.04 in - SSW 13.8 mph - N/A   Clear
2:20 PM 68.0 °F 51.8 °F 56% 30.01 in 6.2 mi SW 13.8 mph - N/A   Partly Cloudy
2:50 PM 69.8 °F 51.8 °F 53% 30.01 in 6.2 mi WSW 13.8 mph - N/A   Partly Cloudy
3:20 PM 69.8 °F 50.0 °F 49% 30.01 in 6.2 mi SW 19.6 mph - N/A   Partly Cloudy
3:50 PM 69.8 °F 51.8 °F 53% 29.98 in 6.2 mi SW 17.3 mph - N/A   Partly Cloudy
4:20 PM 69.8 °F 51.8 °F 53% 29.98 in 6.2 mi SW 19.6 mph - N/A   Partly Cloudy
4:50 PM 69.8 °F 50.0 °F 49% 29.98 in 6.2 mi SSW 16.1 mph - N/A   Unknown
5:20 PM 69.8 °F 50.0 °F 49% 29.95 in 6.2 mi SSW 18.4 mph - N/A   Partly Cloudy
5:50 PM 68.0 °F 48.2 °F 49% 29.95 in 6.2 mi SW 20.7 mph - N/A   Partly Cloudy
6:20 PM 68.0 °F 48.2 °F 49% 29.95 in 6.2 mi SW 16.1 mph - N/A   Partly Cloudy
6:50 PM 66.2 °F 48.2 °F 52% 29.95 in 6.2 mi SW 15.0 mph - N/A   Partly Cloudy
7:20 PM 64.4 °F 48.2 °F 56% 29.95 in - SW 8.1 mph - N/A   Clear
7:50 PM 62.6 °F 48.2 °F 59% 29.95 in - SSW 8.1 mph - N/A   Clear
8:20 PM 60.8 °F 46.4 °F 59% 29.95 in - SSW 9.2 mph - N/A   Clear
8:50 PM 59.0 °F 44.6 °F 59% 29.95 in - SSW 8.1 mph - N/A   Clear
9:20 PM 55.4 °F 44.6 °F 67% 29.95 in - SW 6.9 mph - N/A   Clear
9:50 PM 55.4 °F 48.2 °F 77% 29.95 in - West 4.6 mph - N/A   Clear
10:20 PM 55.4 °F 48.2 °F 77% 29.92 in - WSW 4.6 mph - N/A   Clear
10:50 PM 55.4 °F 48.2 °F 77% 29.92 in - WSW 6.9 mph - N/A   Clear
11:20 PM 53.6 °F 46.4 °F 77% 29.92 in - SW 9.2 mph - N/A   Clear
11:50 PM 55.4 °F 44.6 °F 67% 29.92 in - SW 9.2 mph - N/A   Clear